Other Surface Observations
Issued by NWS Upton, NY

Home | Current Version | Previous Version | Text Only | Print | Product List | Glossary On
Versions: 1 2 3 4 5 6 7 8 9 10 11 12 13 14 15 16 17 18 19 20 21 22 23 24 25 26 27 28 29 30 31 32 33 34 35 36 37 38 39 40 41 42 43 44 45 46 47 48 49 50
000
SXUS51 KOKX 270757
OSOOKX
New York City Metropolitan Area Weather Roundup
National Weather Service New York NY
400 AM EDT SUN MAY 27 2018

CITY           SKY/WX    TMP DP  RH WIND       PRES   REMARKS
Central Park   MOCLDY    71  63  75 NE7       29.94R
LaGuardia Arpt CLOUDY    68  62  81 NE9       29.90R
Kennedy Intl   CLOUDY    68  65  90 E14       29.91R
Newark Liberty LGT RAIN  75  66  73 E12       29.88R
Teterboro Arpt CLOUDY    72  64  76 E10       29.89R
Bronx Bot Gard   N/A     68  59  73 NE13      29.93R
Bronx Lehman C   N/A    N/A N/A N/A E14         N/A
Queens College   N/A     72  66  83 E13         N/A
Breezy Point     N/A     70 N/A N/A NE5G12      N/A
Brooklyn Coll    N/A     73  64  73 NE7         N/A
Staten Island    N/A     73  68  83 NE7         N/A

>>>>>>>>>>>>>>>>>>>>>>>>>>>>>>>>> KEY <<<<<<<<<<<<<<<<<<<<<<<<<<<<<<<
> SKY/WX - Sky Condition/Present    : R : WCI - Wind Chill Index    <
>          Weather                  : E : VSB - Visibility in Miles <
> TMP    - Temperature in Deg F     : M : HX  - Heat Index          <
> DP     - Dew Point Temperature    : A : TC  - Temperature in      <
> RH     - Relative Humidity        : R :       Celsius             <
> WIND   - Direction/Speed (mph)    : K : VRB - Variable Wind Dir   <
> PRES   - Pressure (in Hg)         : S :                           <
>>>>>>>>>>>>>>>>>>>>>>>>>>>>>>>>> KEY <<<<<<<<<<<<<<<<<<<<<<<<<<<<<<<




USA.gov is the U.S. government's official web portal to all federal, state and local government web resources and services.